Location: Wheeling
(40.0640°N, 80.7210°W)
Time: 20:30:03
(UTC-05:00)

KAITUO 1B - Pass Details

Date: 31 October 2021
Orbit: 490 x 506 km, 97.4° (Epoch: 30 November)

Event Time Altitude Azimuth Distance (km) Brightness Sun altitude
Rises 19:49:48 0° 197° (SSW) 2,550 ? -17.4°
Reaches altitude 10° 19:52:13 10° 213° (SSW) 1,674 ? -17.9°
Maximum altitude 19:55:02 21° 265° (W) 1,135 ? -18.4°
Drops below altitude 10° 19:57:52 10° 317° (NW) 1,687 ? -19.0°
Sets 20:00:19 0° 333° (NNW) 2,576 ? -19.4°
